Location: Poughquag
(41.6090°N, 73.6820°W)
Time: 02:05:11
(UTC-04:00)

Vanguard 1 - Pass Details

Date: 05 June 2020
Orbit: 650 x 3833 km, 34.2° (Epoch: 06 July)

Event Time Altitude Azimuth Distance (km) Brightness Sun altitude
Rises 09:52:07 0° 278° (W) 6,971 14.0 47.8°
Reaches altitude 10° 09:56:23 10° 275° (W) 6,254 13.9 48.6°
Maximum altitude 10:17:19 57° 204° (SSW) 4,251 14.0 52.4°
Drops below altitude 10° 10:38:13 10° 133° (SE) 6,221 14.8 56.0°
Sets 10:42:29 0° 129° (SE) 6,931 14.9 56.7°
